TimeCST,TemperatureF,Dew PointF,Humidity,Sea Level PressureIn,VisibilityMPH,Wind Direction,Wind SpeedMPH,Gust SpeedMPH,PrecipitationIn,Events,Conditions,WindDirDegrees,DateUTC
12:53 AM,39.0,33.1,79,30.37,10.0,Calm,Calm,-,N/A,,Clear,0,2012-11-16 06:53:00
1:53 AM,36.0,33.1,89,30.38,10.0,Calm,Calm,-,N/A,,Clear,0,2012-11-16 07:53:00
2:53 AM,37.0,33.1,86,30.39,10.0,West,3.5,-,N/A,,Clear,280,2012-11-16 08:53:00
3:53 AM,36.0,32.0,86,30.40,10.0,Calm,Calm,-,N/A,,Clear,0,2012-11-16 09:53:00
4:53 AM,37.0,32.0,82,30.40,10.0,Calm,Calm,-,N/A,,Clear,0,2012-11-16 10:53:00
5:53 AM,35.1,30.9,85,30.40,10.0,Calm,Calm,-,N/A,,Clear,0,2012-11-16 11:53:00
6:53 AM,35.1,30.9,85,30.41,10.0,Calm,Calm,-,N/A,,Clear,0,2012-11-16 12:53:00
7:53 AM,36.0,32.0,86,30.43,10.0,NW,3.5,-,N/A,,Clear,320,2012-11-16 13:53:00
8:53 AM,42.1,35.1,76,30.44,10.0,NNW,3.5,-,N/A,,Clear,340,2012-11-16 14:53:00
9:53 AM,48.0,37.0,66,30.45,10.0,Calm,Calm,-,N/A,,Clear,0,2012-11-16 15:53:00
10:53 AM,55.0,36.0,49,30.44,10.0,Calm,Calm,-,N/A,,Clear,0,2012-11-16 16:53:00
11:53 AM,59.0,36.0,42,30.41,10.0,Variable,4.6,-,N/A,,Clear,0,2012-11-16 17:53:00
12:53 PM,60.1,35.1,39,30.38,10.0,Calm,Calm,-,N/A,,Clear,0,2012-11-16 18:53:00
1:53 PM,62.1,32.0,32,30.37,10.0,Calm,Calm,-,N/A,,Clear,0,2012-11-16 19:53:00
2:53 PM,62.1,33.1,34,30.35,10.0,SE,4.6,-,N/A,,Clear,130,2012-11-16 20:53:00
3:53 PM,62.1,30.9,31,30.35,10.0,SE,4.6,-,N/A,,Clear,130,2012-11-16 21:53:00
4:53 PM,57.9,30.0,35,30.35,10.0,ESE,3.5,-,N/A,,Clear,110,2012-11-16 22:53:00
5:53 PM,57.0,28.9,34,30.35,10.0,ESE,3.5,-,N/A,,Clear,120,2012-11-16 23:53:00
6:53 PM,53.1,30.0,41,30.36,10.0,SSW,4.6,-,N/A,,Clear,200,2012-11-17 00:53:00
7:53 PM,48.0,33.1,56,30.37,10.0,South,3.5,-,N/A,,Clear,180,2012-11-17 01:53:00
8:53 PM,46.9,33.1,59,30.37,10.0,Calm,Calm,-,N/A,,Clear,0,2012-11-17 02:53:00
9:53 PM,41.0,33.1,73,30.38,10.0,Calm,Calm,-,N/A,,Clear,0,2012-11-17 03:53:00
10:53 PM,44.1,34.0,68,30.38,10.0,Calm,Calm,-,N/A,,Clear,0,2012-11-17 04:53:00
11:53 PM,41.0,33.1,73,30.37,10.0,Calm,Calm,-,N/A,,Clear,0,2012-11-17 05:53:00